FW3572 Weather Reports


time (UTC)temp
C
wind
direction
speed
KPH
gust
KPH
rain 1hr
cm
rain 24hr
cm
rain mn
cm
humidity
%
barometer
mb
20260504110539 22 336 8.0 20.9 0.00 0.03 0.03 100 1016.5
20260504100535 22 355 4.8 14.5 0.03 0.08 0.03 100 1016.1
20260504081528 23 355 4.8 20.9 0.00 0.23 0.00 100 1015.4
20260504081026 23 42 6.4 19.3 0.00 0.23 0.00 100 1015.2
20260504080523 23 34 3.2 20.9 0.00 0.23 0.00 100 1015.3
20260504050557 23 28 3.2 17.7 0.00 0.23 0.00 100 1017.1
20260504045555 23 355 3.2 16.1 0.00 0.23 0.00 100 1017.4
20260504045056 23 96 3.2 16.1 0.00 0.23 0.00 100 1017.5
20260504044557 23 21 4.8 16.1 0.00 0.23 0.00 100 1017.5
20260504044055 23 67 3.2 16.1 0.00 0.23 0.00 100 1017.4
20260504043553 23 33 3.2 19.3 0.00 0.23 0.00 100 1017.5
20260504043054 23 5 3.2 19.3 0.00 0.23 0.00 100 1017.7
20260504042550 23 71 1.6 8.0 0.00 0.23 0.00 100 1017.8
20260504042048 23 49 1.6 8.0 0.00 0.23 0.00 100 1017.7
20260504041546 23 52 1.6 8.0 0.00 0.23 0.00 100 1017.7
20260504041046 23 76 1.6 8.0 0.00 0.23 0.00 100 1017.7
20260504040548 23 138 1.6 16.1 0.00 0.23 0.00 100 1017.7
20260504040100 23 66 3.2 16.1 0.00 0.23 0.00 100 1017.8
20260504035543 23 54 1.6 9.7 0.00 0.23 0.00 100 1017.9
20260504035039 23 39 1.6 12.9 0.00 0.23 0.00 100 1017.9
20260504034541 23 106 3.2 12.9 0.00 0.23 0.23 100 1017.9
20260504034039 23 127 3.2 12.9 0.00 0.23 0.23 100 1017.9
20260504033539 23 84 3.2 12.9 0.00 0.23 0.23 100 1017.9
20260504033040 22 134 4.8 12.9 0.00 0.23 0.23 100 1017.9
20260504032538 22 50 0.0 9.7 0.00 0.23 0.23 100 1018.2
20260504032038 22 121 1.6 11.3 0.00 0.23 0.23 100 1018.2
20260504031538 22 94 1.6 11.3 0.00 0.23 0.23 100 1018.3
20260504031037 22 90 3.2 11.3 0.00 0.23 0.23 100 1018.2
20260504030537 22 49 1.6 9.7 0.00 0.23 0.23 100 1018.2
20260504030037 22 58 3.2 12.9 0.00 0.23 0.23 100 1018.1
20260504025538 22 38 3.2 12.9 0.00 0.23 0.23 100 1018.0
20260504025040 22 355 1.6 12.9 0.00 0.23 0.23 100 1017.9
20260504024537 22 360 3.2 16.1 0.00 0.23 0.23 100 1018.0
20260504024036 23 336 4.8 19.3 0.00 0.23 0.23 100 1018.1
20260504023536 23 51 3.2 19.3 0.00 0.23 0.23 100 1018.1
20260504023036 23 12 1.6 8.0 0.00 0.23 0.23 100 1018.1
20260504022537 23 63 1.6 12.9 0.00 0.23 0.23 100 1018.1
20260504022034 23 144 3.2 12.9 0.00 0.23 0.23 100 1018.0
20260504021536 23 65 3.2 9.7 0.00 0.23 0.23 100 1018.0
20260504021034 23 158 1.6 12.9 0.00 0.23 0.23 100 1017.9
20260504020535 23 65 1.6 12.9 0.00 0.23 0.23 100 1017.8
20260504020037 23 42 1.6 9.7 0.00 0.23 0.23 100 1017.8
20260504015535 23 65 1.6 9.7 0.00 0.23 0.23 100 1017.7
20260504015039 22 86 3.2 9.7 0.00 0.23 0.23 100 1017.7
20260504014537 22 82 3.2 19.3 0.00 0.23 0.23 100 1017.7
20260504014034 22 149 6.4 19.3 0.00 0.23 0.23 100 1017.6
20260504013534 22 57 3.2 17.7 0.00 0.23 0.23 100 1017.6
20260504013034 22 119 3.2 17.7 0.00 0.23 0.23 100 1017.6
20260504012536 22 36 3.2 9.7 0.00 0.23 0.23 100 1017.5
20260504012033 22 59 3.2 12.9 0.00 0.23 0.23 100 1017.7
20260504011532 22 111 1.6 12.9 0.00 0.23 0.23 100 1017.6
20260504011032 22 53 3.2 12.9 0.00 0.23 0.23 100 1017.5
20260504010532 22 94 4.8 12.9 0.00 0.23 0.23 100 1017.6
20260504010032 22 17 3.2 14.5 0.00 0.23 0.23 100 1017.4
20260504005535 22 38 3.2 14.5 0.00 0.23 0.23 100 1017.5
20260504005032 22 147 4.8 17.7 0.00 0.23 0.23 100 1017.5
20260504004541 22 44 3.2 17.7 0.00 0.23 0.23 100 1017.6
20260504004031 22 63 3.2 14.5 0.00 0.23 0.23 100 1017.6
20260504003534 22 49 4.8 14.5 0.00 0.23 0.23 100 1017.5
20260504003031 22 5 3.2 14.5 0.00 0.23 0.23 100 1017.5
20260504002530 22 32 4.8 14.5 0.00 0.23 0.23 100 1017.3
20260504002030 22 94 3.2 20.9 0.00 0.23 0.23 100 1017.2
20260504001530 22 87 3.2 20.9 0.00 0.23 0.23 100 1017.4
20260504001031 22 349 3.2 16.1 0.00 0.23 0.23 100 1017.3
20260504000531 22 82 3.2 16.1 0.00 0.23 0.23 100 1017.3
20260504000029 22 32 1.6 17.7 0.00 0.23 0.23 100 1017.3
20260503235529 22 338 4.8 17.7 0.00 0.23 0.23 100 1017.1
20260503235029 22 84 3.2 14.5 0.00 0.23 0.23 100 1017.1
20260503234533 22 15 4.8 14.5 0.00 0.23 0.23 100 1017.0
20260503234029 22 51 3.2 16.1 0.00 0.23 0.23 100 1017.0
20260503233529 22 25 4.8 16.1 0.00 0.23 0.23 100 1017.0
20260503233028 22 340 1.6 16.1 0.00 0.23 0.23 100 1017.1
20260503232530 22 54 4.8 19.3 0.00 0.23 0.23 100 1017.0
20260503232028 22 47 4.8 16.1 0.00 0.23 0.23 100 1016.9
20260503231528 22 95 6.4 19.3 0.00 0.23 0.23 100 1016.8
20260503231028 22 49 8.0 19.3 0.00 0.23 0.23 100 1016.8
20260503230527 22 360 1.6 12.9 0.00 0.23 0.23 100 1016.9
20260503230028 22 34 3.2 12.9 0.00 0.23 0.23 100 1016.9
20260503225528 22 44 1.6 12.9 0.00 0.23 0.23 100 1016.8
20260503225030 22 61 1.6 6.4 0.00 0.23 0.23 100 1016.9
20260503224528 22 80 0.0 6.4 0.00 0.23 0.23 100 1016.9
20260503224028 22 104 1.6 14.5 0.00 0.23 0.23 100 1016.8
20260503223531 22 23 4.8 14.5 0.00 0.23 0.23 100 1016.8
20260503223027 22 349 1.6 9.7 0.00 0.23 0.23 100 1016.8
20260503222528 22 355 1.6 14.5 0.00 0.23 0.23 100 1016.8
20260503222030 22 344 3.2 14.5 0.00 0.23 0.23 100 1016.8
20260503221527 22 78 1.6 14.5 0.00 0.23 0.23 100 1017.0
20260503221026 22 46 1.6 6.4 0.00 0.23 0.23 100 1017.0
20260503220528 22 80 1.6 11.3 0.00 0.23 0.23 100 1017.1
20260503220026 22 88 1.6 16.1 0.00 0.23 0.23 100 1017.0
20260503215526 22 355 4.8 16.1 0.00 0.23 0.23 100 1016.9
20260503215025 22 360 3.2 8.0 0.00 0.23 0.23 100 1017.0
20260503214526 22 136 1.6 8.0 0.00 0.23 0.23 100 1017.1
20260503214025 22 95 3.2 9.7 0.00 0.23 0.23 100 1017.1
20260503213525 22 46 1.6 9.7 0.00 0.23 0.23 100 1017.0
20260503213026 22 46 1.6 9.7 0.00 0.23 0.23 100 1016.9
20260503212525 22 102 3.2 9.7 0.00 0.23 0.23 100 1017.1
20260503212026 22 98 1.6 9.7 0.00 0.23 0.23 100 1017.1
20260503211524 22 80 0.0 6.4 0.00 0.23 0.23 100 1017.1
20260503211029 22 105 0.0 9.7 0.00 0.23 0.23 100 1017.0
20260503210528 22 119 1.6 9.7 0.00 0.23 0.23 100 1017.2
20260503210023 22 28 0.0 8.0 0.00 0.23 0.23 100 1017.3
20260503205523 22 51 1.6 9.7 0.00 0.23 0.23 100 1017.3
20260503205023 22 360 4.8 12.9 0.00 0.23 0.23 100 1017.3
20260503204528 22 15 4.8 12.9 0.00 0.23 0.23 100 1017.5
20260503204027 22 40 3.2 8.0 0.00 0.23 0.23 100 1017.6
20260503203530 22 355 0.0 8.0 0.00 0.23 0.23 100 1017.6
20260503203024 22 15 1.6 8.0 0.00 0.23 0.23 100 1017.8
20260503202522 22 44 1.6 8.0 0.00 0.23 0.23 100 1017.9
20260503202022 22 41 1.6 9.7 0.00 0.23 0.23 100 1017.9
20260503201522 22 38 3.2 12.9 0.00 0.23 0.23 100 1017.7
20260503201021 22 26 1.6 12.9 0.00 0.23 0.23 100 1017.6
20260503200521 22 40 1.6 9.7 0.00 0.23 0.23 100 1017.7
20260503200022 22 24 1.6 9.7 0.00 0.23 0.23 100 1017.6
20260503195521 22 40 3.2 14.5 0.00 0.23 0.23 100 1017.5
20260503195025 22 24 1.6 17.7 0.00 0.23 0.23 100 1017.6
20260503194521 22 15 1.6 17.7 0.00 0.23 0.23 100 1017.7
20260503194021 22 14 4.8 17.7 0.00 0.23 0.23 100 1017.7
20260503193523 22 9 4.8 12.9 0.00 0.23 0.23 100 1017.7
20260503193035 22 26 4.8 16.1 0.00 0.23 0.23 100 1017.6
20260503192520 21 22 4.8 16.1 0.00 0.23 0.23 100 1017.7
20260503192024 21 341 6.4 16.1 0.00 0.23 0.23 100 1017.7
20260503191520 21 58 4.8 17.7 0.00 0.23 0.23 100 1017.8
20260503191023 21 19 3.2 22.5 0.00 0.23 0.23 100 1018.0
20260503190520 21 10 6.4 22.5 0.00 0.23 0.23 100 1018.0
20260503190020 21 355 4.8 16.1 0.00 0.23 0.23 100 1018.2
20260503185520 21 11 4.8 20.9 0.00 0.23 0.23 100 1018.2
20260503185019 21 38 8.0 20.9 0.00 0.23 0.23 100 1018.2
20260503184524 21 5 6.4 16.1 0.00 0.23 0.23 100 1018.4
20260503184021 21 13 4.8 16.1 0.00 0.23 0.23 100 1018.3
20260503183518 21 55 6.4 16.1 0.00 0.23 0.23 100 1018.4
20260503183019 21 76 6.4 14.5 0.00 0.23 0.23 100 1018.5
20260503182517 21 60 4.8 17.7 0.00 0.23 0.23 100 1018.5
20260503182020 21 360 4.8 17.7 0.00 0.23 0.23 100 1018.6
20260503181518 21 73 6.4 27.4 0.00 0.23 0.23 100 1018.6
20260503181017 21 19 11.3 27.4 0.00 0.23 0.23 100 1018.8
20260503180517 21 42 4.8 19.3 0.00 0.23 0.23 100 1018.8
20260503180019 21 10 6.4 19.3 0.00 0.23 0.23 100 1018.8
20260503175514 21 342 3.2 17.7 0.00 0.23 0.23 100 1018.8
20260503175015 21 28 1.6 14.5 0.00 0.23 0.23 100 1018.8
20260503174515 22 18 4.8 12.9 0.00 0.23 0.23 100 1018.7
20260503174015 22 277 1.6 16.1 0.00 0.23 0.23 100 1018.6
20260503173515 22 30 3.2 17.7 0.00 0.23 0.23 100 1018.8
20260503173022 21 19 6.4 17.7 0.00 0.23 0.23 100 1018.8
20260503172513 21 317 3.2 12.9 0.00 0.23 0.23 100 1018.8
20260503172015 21 348 6.4 14.5 0.00 0.23 0.23 100 1018.9
20260503171521 21 163 4.8 19.3 0.00 0.23 0.23 100 1018.8
20260503171013 21 348 6.4 19.3 0.00 0.23 0.23 100 1018.7
20260503170513 21 340 8.0 19.3 0.00 0.23 0.23 100 1018.8
20260503151005 22 327 3.2 17.7 0.00 0.23 0.23 100 1018.9
20260503150504 22 16 4.8 24.1 0.00 0.23 0.23 100 1018.9
20260503131055 21 5 8.0 19.3 0.00 0.23 0.23 100 1017.7
20260503130558 21 69 6.4 16.1 0.00 0.23 0.23 100 1017.6